Location: Recife
(8.0585°S, 34.8848°W)
Time: 10:53:06
(UTC-03:00)

Courier 1B Rocket - Pass Details

Date: 20 April 2026
Orbit: 920 x 1201 km, 28.2° (Epoch: 13 May)

Event Time Altitude Azimuth Distance (km) Brightness Sun altitude
Rises 14:51:49 0° 273° (W) 4,070 9.2 33.4°
Reaches altitude 10° 14:55:46 10° 291° (WNW) 3,121 9.2 32.5°
Maximum altitude 15:00:39 18° 331° (NNW) 2,583 8.1 31.3°
Drops below altitude 10° 15:05:32 10° 10° (N) 3,103 7.8 30.2°
Sets 15:09:29 0° 29° (NNE) 4,036 8.1 29.3°
